Content
SEND FEEDBACK

Daily
Averages
Monthly
Summary
United States of America

ORANGE COVE, CALIFORNIA


Home > North America > United States > California
Elevation: 440 feet     Latitude: 36 37N     Longitude: 119 18W

WEATHER
 
SELECT A DAY
Number of Records: 420,723;   Date Range: 1/1/95 - 9/20/14
 
SHARE

PRINT THIS DATA

[ ← Previous Day ]
WEATHER ALMANAC - JANUARY 31, 2013
[ Next Day → ]
[ °C ]   °F
Weather ElementAverageHighLow
Temperature49 °F64.4 °F (2:15 pm)35.6 °F (5:35 am)
Dewpoint38.8 °F44.6 °F (12:15 pm)30.2 °F (4:15 am)
Humidity69.9 %93 % (5:55 am)45 % (2:15 pm)
Barometer30.26 in30.32 in (8:55 am)30.19 in (4:15 pm)
Wind Speed1.8 mph8.1 mph (3:15 pm)
Weather ElementAverage
Visibility7.6 mi
Wind DirectionESE (107.7 °)

Weather ElementTotal
Precipitation---
Heating Degree Days15 (Base 65)
Averaged from 69 records on January 31, 2013
WEATHER CONDITIONS BREAKOUT
WIND DIRECTION BREAKOUT
WEATHER BY HOUR - JANUARY 31, 2013
[ °C ]   °F
Local TimeTemperatureDewpointHumidityBarometerVisibilityWind DirectionWind SpeedGust SpeedPrecipitationEventsConditions
12:35 AM39.2 °F33.8 °F81 %30.31 in9.0 miCalmClear
12:55 AM41.0 °F35.6 °F81 %30.31 in10.0 miCalmClear
1:15 AM39.2 °F35.6 °F87 %30.31 in8.0 miESE (120°)3.5 mphClear
1:35 AM39.2 °F35.6 °F87 %30.31 in7.0 miCalmClear
1:55 AM39.2 °F33.8 °F81 %30.31 in7.0 miCalmClear
2:15 AM39.2 °F33.8 °F81 %30.31 in6.0 miCalmClear
2:35 AM39.2 °F33.8 °F81 %30.31 in5.0 miNW (320°)3.5 mphClear
2:55 AM39.2 °F33.8 °F81 %30.31 in5.0 miWNW (300°)3.5 mphClear
3:15 AM39.2 °F33.8 °F81 %30.29 in5.0 miWNW (300°)3.5 mphClear
3:35 AM37.4 °F32.0 °F81 %30.29 in6.0 miCalmClear
3:55 AM37.4 °F33.8 °F87 %30.28 in5.0 miCalmClear
4:15 AM37.4 °F30.2 °F75 %30.28 in2.0 miCalmClear
4:35 AM37.4 °F33.8 °F87 %30.28 in3.0 miCalmClear
4:55 AM37.4 °F33.8 °F87 %30.28 in4.0 miCalmClear
5:15 AM37.4 °F33.8 °F87 %30.28 in6.0 miCalmClear
5:35 AM35.6 °F30.2 °F81 %30.28 in1.8 miCalmClear
5:55 AM35.6 °F33.8 °F93 %30.27 in3.0 miCalmClear
6:15 AM35.6 °F32.0 °F87 %30.28 in3.0 miCalmClear
6:35 AM35.6 °F32.0 °F87 %30.28 in2.5 miCalmClear
6:55 AM35.6 °F32.0 °F87 %30.28 in3.0 miCalmClear
7:15 AM35.6 °F30.2 °F81 %30.29 in1.2 miCalmClear
7:35 AM35.6 °F32.0 °F87 %30.30 in1.8 miCalmClear
7:55 AM37.4 °F35.6 °F93 %30.30 in4.0 miCalmClear
8:15 AM42.8 °F37.4 °F81 %30.31 in5.0 miNW (320°)3.5 mphClear
8:35 AM44.6 °F39.2 °F81 %30.31 in5.0 miCalmClear
8:55 AM46.4 °F39.2 °F76 %30.32 in8.0 miCalmClear
9:15 AM46.4 °F39.2 °F76 %30.31 in9.0 miCalmClear
9:35 AM48.2 °F41.0 °F76 %30.32 in10.0 miCalmClear
9:55 AM50.0 °F42.8 °F76 %30.32 in10.0 miCalmClear
10:15 AM51.8 °F42.8 °F71 %30.32 in10.0 miCalmClear
10:35 AM53.6 °F42.8 °F67 %30.32 in10.0 miCalmClear
10:55 AM55.4 °F42.8 °F63 %30.31 in10.0 miCalmClear
11:15 AM55.4 °F42.8 °F63 %30.31 in10.0 miCalmClear
11:35 AM57.2 °F42.8 °F59 %30.30 in10.0 miCalmClear
11:55 AM57.2 °F42.8 °F59 %30.29 in10.0 miWNW (290°)3.5 mphClear
12:15 PM60.8 °F44.6 °F55 %30.29 in10.0 miCalmClear
12:35 PM60.8 °F42.8 °F52 %30.27 in10.0 miWest (270°)3.5 mphClear
12:55 PM62.6 °F42.8 °F48 %30.26 in10.0 miWNW (290°)4.6 mphClear
1:15 PM62.6 °F44.6 °F52 %30.25 in10.0 miNW (320°)4.6 mphClear
1:35 PM62.6 °F42.8 °F48 %30.24 in10.0 miNNW (330°)5.8 mphClear
1:55 PM62.6 °F42.8 °F48 %30.24 in10.0 miCalmClear
2:15 PM64.4 °F42.8 °F45 %30.23 in10.0 miNNW (330°)4.6 mphClear
2:35 PM64.4 °F44.6 °F49 %30.22 in10.0 miNNW (330°)4.6 mphClear
2:55 PM64.4 °F44.6 °F49 %30.21 in10.0 miNNW (340°)6.9 mphClear
3:15 PM64.4 °F42.8 °F45 %30.20 in10.0 miNNW (330°)8.1 mphClear
3:35 PM64.4 °F44.6 °F49 %30.20 in10.0 miNNW (340°)4.6 mphClear
3:55 PM64.4 °F44.6 °F49 %30.20 in10.0 miNW (320°)5.8 mphClear
4:15 PM64.4 °F42.8 °F45 %30.19 in10.0 miNNW (340°)5.8 mphClear
4:35 PM64.4 °F42.8 °F45 %30.19 in10.0 miNorth (350°)5.8 mphClear
4:55 PM64.4 °F44.6 °F49 %30.19 in10.0 miWNW (290°)4.6 mphClear
5:15 PM60.8 °F44.6 °F55 %30.19 in10.0 miWNW (290°)5.8 mphClear
5:35 PM59.0 °F42.8 °F55 %30.19 in10.0 miWNW (290°)4.6 mphClear
5:55 PM57.2 °F42.8 °F59 %30.20 in10.0 miWNW (290°)4.6 mphClear
6:15 PM55.4 °F42.8 °F63 %30.20 in10.0 miCalmClear
6:35 PM55.4 °F42.8 °F63 %30.20 in10.0 miWNW (290°)3.5 mphClear
6:55 PM55.4 °F42.8 °F63 %30.21 in6.0 miCalmClear
7:15 PM53.6 °F42.8 °F67 %30.21 in8.0 miCalmClear
7:35 PM51.8 °F39.2 °F62 %30.21 in10.0 miCalmClear
7:55 PM50.0 °F39.2 °F66 %30.22 in10.0 miCalmClear
8:15 PM48.2 °F39.2 °F71 %30.22 in10.0 miCalmClear
8:35 PM46.4 °F39.2 °F76 %30.23 in9.0 miCalmClear
8:55 PM48.2 °F39.2 °F71 %30.22 in8.0 miCalmClear
9:15 PM46.4 °F37.4 °F71 %30.22 in8.0 miCalmClear
9:35 PM46.4 °F39.2 °F76 %30.23 in7.0 miCalmClear
10:15 PM44.6 °F37.4 °F76 %30.23 in7.0 miESE (110°)4.6 mphClear
10:35 PM44.6 °F39.2 °F81 %30.22 in7.0 miEast (100°)4.6 mphClear
11:15 PM44.6 °F37.4 °F76 %30.22 in6.0 miESE (110°)4.6 mphClear
11:35 PM44.6 °F37.4 °F76 %30.22 in5.0 miESE (120°)4.6 mphClear
11:55 PM42.8 °F35.6 °F76 %30.22 in5.0 miCalmClear
Hourly data recorded from KVIS, located miles away from Orange Cove, California







STORIES FROM OUR PARTNERS